Probability
0 0 0 0 0 0 0 0 0 0 0 0 0 0 0 0 0 0 0 0 0 0 0 0 0 0 0 0 0 0 0 0 0 0 0 0 0 0 0 0 0 1 2 1 0 0 0 0 0
0 0 0 0 0 0 0 0 0 0 0 0 0 0 0 0 0 0 0 0 0 0 0 0 0 0 0 0 0 0 0 0 0 0 0 0 0 0 0 0 0 1 2 2 1 0 0 0 0
0 0 0 0 0 0 0 0 0 0 0 0 0 0 0 0 0 0 0 0 0 0 0 0 0 0 0 0 0 0 0 0 0 0 1 1 1 0 0 0 0 0 1 1 1 0 0 0 0
0 0 0 0 0 0 0 0 0 0 0 0 0 0 0 0 0 0 0 0 0 0 0 0 0 0 0 0 0 0 0 0 0 0 1 1 1 1 0 0 0 0 0 0 0 0 0 0 0
0 0 0 0 0 0 0 0 0 0 0 0 0 0 0 0 0 0 0 0 0 0 0 0 0 0 0 0 0 0 0 0 0 0 0 1 1 1 0 0 0 0 0 0 0 0 0 0 0
0 0 0 0 0 0 0 0 0 0 0 0 0 0 0 0 0 0 0 0 0 0 0 0 0 0 0 0 0 0 0 0 0 0 0 0 0 0 0 0 0 1 1 1 1 1 0 0 0
0 0 0 0 0 0 0 0 0 0 0 0 0 0 0 0 0 0 0 0 0 0 0 0 0 0 0 0 0 0 0 0 0 0 0 0 0 0 0 0 0 1 2 2 2 2 1 0 0
0 0 0 0 0 0 0 0 0 0 0 0 0 0 0 0 1 1 1 0 0 0 0 0 0 0 0 0 0 0 0 0 0 0 0 0 0 0 0 0 0 1 2 3 3 2 1 0 0
0 0 0 0 0 0 0 0 0 0 0 0 0 0 0 1 2 2 1 0 0 0 0 0 0 0 0 0 0 0 0 0 0 0 0 0 0 0 0 0 0 0 1 2 2 1 1 0 0
0 0 0 0 0 0 0 0 0 0 0 0 0 0 0 1 2 2 1 0 0 0 0 0 0 0 0 0 0 0 0 0 0 0 0 0 0 0 0 0 0 0 0 1 1 0 0 0 0
0 0 0 0 0 0 0 0 0 0 0 0 0 0 0 1 2 2 1 1 1 0 0 0 0 0 0 0 0 0 0 0 0 0 0 0 0 0 0 0 0 0 0 0 0 0 0 0 0
0 0 0 0 0 0 0 0 0 0 0 0 0 0 0 1 2 3 2 2 2 1 0 0 0 0 0 0 0 0 0 0 0 0 0 0 0 0 0 0 0 0 0 0 0 0 0 0 0
0 0 0 0 0 0 0 0 0 0 0 0 0 0 0 1 3 3 2 3 3 2 0 0 0 0 0 0 0 0 0 0 0 0 0 0 0 0 0 0 0 0 0 0 0 0 0 0 0
0 0 0 0 0 0 0 0 0 0 0 0 0 0 0 2 3 3 2 2 2 1 0 0 0 0 0 0 0 0 0 0 0 0 0 0 0 0 0 0 0 0 0 0 0 0 0 0 0
0 0 0 0 0 0 0 0 0 0 0 0 0 0 0 1 3 3 1 1 1 0 0 0 0 0 0 0 0 0 0 0 0 0 0 0 0 0 0 0 0 0 0 0 0 0 0 0 0
0 0 0 0 0 0 0 0 0 0 0 0 0 0 0 1 2 3 2 0 0 0 0 0 0 0 0 0 0 0 0 0 0 0 0 0 0 0 0 0 0 0 0 0 0 0 0 0 0
0 0 0 0 0 0 0 0 0 0 0 0 0 0 0 1 2 2 1 0 0 0 0 0 0 0 0 0 0 0 0 0 0 0 0 0 0 0 0 0 0 0 0 0 0 0 0 0 0
0 0 0 0 0 0 0 0 0 0 0 0 0 0 0 0 1 1 0 0 0 0 0 0 0 0 0 0 0 0 0 0 0 0 0 0 0 0 0 0 0 0 0 0 0 0 0 0 0
0 0 0 0 0 0 0 0 0 0 0 0 0 0 0 0 0 0 0 0 0 0 0 0 0 0 0 0 0 0 0 0 0 0 0 0 0 0 0 0 0 0 0 0 0 0 0 0 0
0 0 0 0 0 0 0 0 0 0 0 0 0 0 0 0 0 0 0 0 0 0 0 0 0 0 0 0 0 0 0 0 0 0 0 0 0 0 0 0 0 0 0 0 0 0 0 0 0
0 0 0 0 0 0 0 0 0 0 0 0 0 0 0 0 0 0 0 0 0 0 0 0 0 0 0 0 0 0 0 0 0 0 0 0 0 0 0 0 0 0 0 0 0 0 0 0 0
0 0 0 0 0 0 0 0 0 0 0 0 0 0 0 0 0 0 0 0 0 0 0 0 0 0 0 0 0 0 0 0 0 0 0 0 0 0 0 0 0 0 0 0 0 0 0 0 0
0 0 0 0 0 0 0 0 0 0 0 0 0 0 0 0 0 0 0 0 0 0 0 0 0 0 0 0 0 0 0 0 0 0 0 0 0 0 0 0 0 0 0 0 0 0 0 0 0
0 0 0 0 0 0 0 0 0 0 0 0 0 0 0 0 0 0 0 0 0 0 0 0 0 0 0 0 0 0 0 0 0 0 0 0 0 0 0 0 0 0 0 0 0 0 0 0 0
0 0 0 0 0 0 0 0 0 0 0 0 0 0 0 0 0 0 0 0 0 0 0 0 0 0 0 0 0 0 0 0 0 0 0 0 0 0 0 0 0 0 0 0 0 0 0 0 0
0 0 0 0 0 0 0 0 0 0 0 0 0 0 0 0 0 0 0 0 0 0 0 0 0 0 0 0 0 0 0 0 0 0 0 0 0 0 0 0 0 0 0 0 0 0 0 0 0
0 0 0 0 0 0 0 0 0 0 0 0 0 0 0 0 0 0 0 0 0 0 0 0 0 0 0 0 0 0 0 0 0 0 0 0 0 0 0 0 0 0 0 0 0 0 0 0 0
0 0 0 0 0 0 0 0 0 0 0 0 0 0 0 0 0 0 0 0 0 0 0 0 0 0 0 0 0 0 0 0 0 0 0 0 0 0 0 0 0 0 0 0 0 0 0 0 0
0 0 0 0 0 0 0 0 0 0 0 0 0 0 0 0 0 0 0 0 0 0 0 0 0 0 0 0 0 0 0 0 0 0 0 0 0 0 0 0 0 0 0 0 0 0 0 0 0
0 0 0 0 0 0 0 0 0 0 0 0 0 0 0 0 0 0 0 0 0 0 0 0 0 0 0 0 0 0 0 0 0 0 0 0 0 0 0 0 0 0 0 0 0 0 0 0 0
Wind_Speed
8 4 2 4 5 4 2 3 2 1 1 0 1 2 4 4 4 2 0 3 5 5 4 5 7 8 8 8 8 8 8 8 7 7 8 8 8 8 9 8 8 9 10 10 10 10 11 11 11
3 3 4 5 4 1 4 3 3 3 2 2 2 2 2 1 1 2 2 3 6 6 5 4 7 8 8 8 8 8 8 7 7 7 7 8 8 8 8 9 9 10 10 10 11 10 11 11 11
2 4 4 4 3 5 4 2 3 1 0 1 2 2 1 1 1 2 2 5 6 5 4 4 7 8 8 8 8 8 7 7 7 6 7 7 7 7 8 8 9 9 9 10 10 10 10 10 10
3 5 5 4 3 4 4 2 2 1 1 1 2 1 0 1 1 2 4 6 6 5 4 5 8 8 8 8 8 7 7 7 7 7 7 7 8 8 8 8 8 8 8 9 9 10 10 10 10
4 4 3 0 4 4 3 2 2 2 1 0 2 2 1 1 1 4 6 6 7 5 4 4 7 8 8 8 7 7 7 6 7 7 7 7 8 8 8 8 8 8 8 8 9 9 9 9 9
5 5 3 3 4 4 3 2 2 1 1 1 3 3 2 1 3 5 5 5 5 5 4 4 6 7 7 7 7 7 6 6 6 7 7 7 8 8 7 7 8 8 8 8 8 8 8 8 8
4 4 3 3 3 3 2 1 2 2 2 3 3 3 2 1 3 5 5 5 5 4 4 3 3 4 6 6 6 6 6 6 6 7 7 7 7 8 7 7 7 7 7 8 7 8 8 8 8
4 4 2 2 3 4 1 1 1 2 3 0 3 4 4 3 5 6 6 5 4 4 3 3 3 3 3 3 5 6 6 6 6 7 7 7 7 7 7 6 6 6 7 7 7 7 8 8 8
3 4 3 5 5 4 1 0 1 0 1 0 1 2 1 6 8 7 5 4 3 3 2 3 3 3 3 3 4 5 5 6 6 5 6 6 4 4 4 5 6 6 6 6 7 7 8 8 7
4 3 5 3 3 2 1 2 1 0 1 1 1 1 3 7 8 8 7 7 6 5 4 3 4 3 3 3 3 2 3 3 3 3 3 3 3 3 4 5 6 6 6 6 7 7 7 6 3
2 4 3 2 2 1 1 2 1 2 4 5 5 4 6 7 8 8 8 7 7 5 4 3 4 4 3 2 2 2 2 2 2 3 3 3 3 3 3 2 3 4 5 4 4 5 3 3 2
1 2 2 2 1 1 2 2 2 5 7 4 4 4 7 9 10 10 10 8 6 6 5 4 4 4 4 3 2 2 2 2 2 2 3 3 2 2 2 2 2 2 2 2 2 2 2 3 3
2 2 2 2 2 2 2 4 4 6 7 2 2 5 8 9 9 7 6 6 6 6 6 5 5 5 4 3 3 3 2 2 2 2 2 3 2 2 2 1 1 1 1 2 2 2 2 2 2
2 2 4 3 3 2 3 5 3 8 3 2 4 6 8 9 9 7 7 7 7 7 6 5 5 5 5 4 3 3 3 3 2 2 2 3 3 2 2 1 1 1 1 1 1 1 1 1 1
1 3 5 3 2 1 0 7 7 7 2 4 5 6 7 8 7 8 9 9 8 7 7 6 6 5 5 5 4 3 3 3 3 2 2 3 3 3 2 2 1 1 1 1 1 1 1 1 1
2 2 3 4 1 1 2 9 6 2 3 6 6 5 6 7 7 7 7 6 6 6 6 6 5 6 6 5 4 3 3 3 3 2 2 3 3 3 3 2 1 1 1 1 1 1 1 1 1
2 2 4 5 1 1 3 9 6 2 4 7 6 6 6 5 5 6 6 6 6 7 7 7 6 6 6 5 4 3 3 3 2 2 2 3 3 3 3 2 2 1 1 1 1 1 1 0 1
3 3 4 5 3 1 4 10 10 5 5 8 7 7 6 6 8 5 5 5 5 5 6 7 6 6 5 4 3 2 2 2 2 2 3 3 3 3 3 2 2 2 2 1 1 1 1 0 0
2 3 5 5 3 3 7 12 13 8 6 8 7 7 7 8 5 3 4 4 4 4 5 6 7 6 5 4 4 4 4 3 3 3 3 3 3 3 3 2 2 2 2 2 2 1 1 0 1
3 4 5 5 2 3 6 11 9 7 7 7 7 7 6 5 2 2 2 3 4 5 5 6 7 7 7 6 4 3 3 3 3 2 3 3 4 4 4 3 3 3 2 2 2 2 1 0 1
4 5 5 4 5 3 5 9 5 4 3 4 4 5 4 5 5 3 3 3 3 4 5 5 6 7 7 5 3 3 2 2 2 2 3 4 4 4 4 4 3 3 3 3 3 3 3 2 1
5 4 4 3 2 4 1 7 7 4 5 4 4 2 3 3 3 2 2 2 3 4 4 4 5 5 6 6 6 6 5 5 5 4 4 3 4 4 4 4 4 4 3 4 4 4 3 3 2
4 1 2 2 2 3 2 4 10 2 5 5 4 3 2 2 2 2 2 3 3 2 2 3 4 4 5 6 7 7 5 4 2 2 4 4 4 4 4 5 4 4 4 4 4 4 4 3 3
2 2 2 2 2 4 4 5 9 4 6 4 3 2 2 1 1 1 0 1 1 1 1 1 3 4 4 6 6 7 7 5 4 3 4 4 3 4 4 5 5 5 4 5 5 5 5 4 4
2 3 3 4 2 7 2 5 11 6 4 4 4 3 2 1 1 1 1 1 1 1 2 2 3 3 4 5 6 6 6 6 6 5 5 4 4 4 6 5 5 5 5 5 5 5 5 5 5
3 4 5 4 4 5 2 8 9 4 2 2 2 2 1 1 1 1 1 1 1 2 2 3 3 4 4 5 5 5 5 4 4 5 4 5 5 5 5 6 5 5 5 5 5 5 5 5 6
3 3 3 3 0 4 7 7 9 1 1 1 0 1 2 2 2 2 2 1 1 1 2 3 4 3 4 5 5 4 4 4 4 4 3 3 3 3 4 5 5 5 5 5 5 5 6 5 6
2 4 3 4 3 5 7 6 6 3 3 1 1 2 3 3 2 2 2 2 2 2 2 1 2 3 3 3 4 3 4 4 4 3 4 4 3 3 3 4 5 5 5 5 5 5 5 5 5
3 3 3 3 3 4 5 7 5 4 3 2 3 3 3 3 3 3 2 2 2 1 0 1 1 1 2 3 3 3 3 3 3 3 4 4 3 4 4 4 5 5 5 5 5 5 5 6 6
3 5 6 4 5 4 4 9 2 2 2 1 2 3 3 3 2 2 2 2 2 2 1 1 1 1 1 2 2 3 2 2 3 3 3 3 3 4 4 4 4 5 5 5 5 6 6 6 7
Wind_Direction
342 349 43 55 56 52 241 246 221 209 219 10 58 120 142 147 160 188 117 138 131 134 142 143 137 131 127 120 116 112 109 106 102 98 95 92 91 88 85 82 82 85 81 80 81 80 75 74 73
336 1 50 60 91 180 263 247 222 220 189 111 62 77 97 131 84 117 136 151 133 132 134 136 132 130 127 122 115 110 107 106 103 101 99 96 93 90 87 86 85 86 83 79 78 77 76 74 73
358 44 77 80 132 194 231 233 210 276 85 133 91 52 122 161 149 169 178 145 125 125 127 136 129 130 126 122 116 112 109 107 103 100 98 96 92 89 88 87 86 86 84 81 79 76 76 73 71
61 47 57 83 220 227 229 239 183 113 21 64 127 114 294 1 202 178 137 131 122 122 124 135 130 131 127 123 117 112 109 105 104 98 95 92 90 88 87 85 84 84 82 81 78 74 73 71 69
58 75 72 344 249 256 257 256 184 179 201 203 145 167 241 349 64 116 128 131 132 128 126 135 131 131 128 123 118 115 111 107 104 100 95 92 91 86 84 86 84 83 80 79 78 76 73 71 68
58 70 107 227 251 272 270 221 172 193 201 182 159 168 220 42 117 132 128 127 128 128 122 122 126 124 125 123 118 115 109 106 105 100 97 95 94 88 84 85 84 83 81 78 78 77 73 70 67
107 110 178 211 249 270 252 176 174 178 199 213 172 163 231 200 152 132 120 114 113 116 115 111 113 115 117 115 112 111 105 102 100 98 94 91 92 88 84 83 83 84 83 79 78 77 72 70 66
123 114 169 215 221 251 252 158 181 173 213 209 153 174 217 194 144 121 110 109 111 109 114 115 108 106 106 108 106 106 101 97 93 90 84 80 82 82 77 73 77 82 84 81 80 78 73 69 63
95 93 210 214 205 239 245 218 320 314 138 175 210 224 233 135 134 125 121 124 133 132 130 129 122 112 108 108 99 96 97 96 91 85 82 77 66 66 68 66 72 77 80 79 79 76 73 65 59
99 172 221 217 206 225 237 228 229 48 306 248 260 299 122 140 150 155 163 170 172 173 168 156 143 132 122 116 105 95 89 90 84 79 77 74 71 68 68 62 65 66 69 73 73 69 68 60 46
144 196 221 250 247 235 228 242 215 175 239 223 215 200 162 165 172 177 182 181 184 179 174 169 158 148 138 132 123 111 102 99 91 90 86 85 76 68 61 57 49 49 56 57 58 55 51 52 50
171 245 229 258 276 254 230 233 237 212 229 226 211 175 175 182 191 192 191 189 179 176 182 176 164 156 154 146 141 132 125 121 114 113 107 103 95 80 74 70 63 60 59 62 58 61 54 53 51
227 265 274 267 276 252 248 240 241 246 247 257 197 174 193 196 200 201 192 187 182 187 187 182 172 169 165 159 159 146 147 145 140 131 124 120 119 113 97 83 75 73 71 76 74 68 61 51 41
276 286 284 280 262 247 241 262 239 253 232 226 207 207 208 205 201 195 192 195 195 196 194 184 180 177 168 170 170 163 159 152 144 145 142 134 132 133 128 107 91 89 94 95 103 98 88 66 51
320 325 314 275 238 245 249 282 236 244 197 236 234 229 220 216 208 206 203 201 198 196 190 186 183 177 175 178 176 164 163 155 157 161 155 146 140 144 144 135 128 134 125 116 106 88 82 71 46
12 356 297 289 227 211 166 266 267 235 204 243 247 242 231 227 216 214 209 203 195 189 187 188 182 177 181 180 176 168 166 163 166 165 163 162 156 154 150 150 162 159 135 124 124 106 72 49 25
7 272 261 289 246 153 205 258 274 265 235 250 251 244 236 239 238 222 208 200 195 193 188 184 183 179 182 178 170 166 165 168 170 165 167 173 168 164 158 163 172 157 138 134 137 117 124 95 344
234 244 258 262 273 221 247 261 277 270 240 251 252 248 237 236 240 221 203 202 197 190 185 183 181 179 171 162 153 155 164 175 171 173 179 175 176 173 165 165 170 157 148 139 134 147 105 142 277
206 230 262 267 267 246 253 267 276 274 251 252 249 242 238 240 241 209 196 192 186 182 182 186 183 178 166 166 172 179 194 191 190 189 184 182 180 179 177 175 173 170 172 174 163 143 136 67 32
230 257 268 288 292 249 278 277 271 258 244 238 238 237 237 244 251 224 196 187 190 194 194 192 192 184 182 184 180 174 167 180 187 188 189 190 187 187 188 181 183 183 175 170 170 152 144 157 84
235 225 244 268 318 313 315 297 278 270 265 269 252 238 233 224 229 224 205 203 202 205 204 200 197 190 188 175 153 128 110 107 163 195 204 204 197 193 194 191 188 190 185 190 192 181 170 184 202
250 230 224 250 301 295 350 293 282 265 286 274 271 264 252 245 232 217 201 210 220 221 211 204 192 185 182 172 173 172 181 194 201 197 202 201 199 199 198 193 193 194 196 198 199 190 190 174 191
223 208 199 224 222 288 248 252 283 278 269 266 259 255 263 258 228 220 210 214 222 217 205 203 184 180 178 180 184 185 196 201 184 178 189 198 203 204 203 198 197 200 203 206 202 197 198 193 193
175 64 56 53 72 273 230 210 276 237 235 257 261 253 257 276 276 269 264 198 213 188 183 187 183 188 182 180 183 190 197 190 182 190 197 202 207 209 208 205 206 207 207 208 208 204 204 209 209
150 102 20 350 340 255 220 222 254 252 246 234 242 260 273 268 280 307 348 348 279 219 203 190 186 199 195 188 190 197 199 195 200 202 205 203 206 212 213 210 213 213 214 211 207 207 212 211 212
202 164 170 215 245 280 262 237 255 261 267 254 235 255 287 292 271 259 247 239 242 233 212 198 199 205 199 199 204 203 198 197 206 206 206 209 213 216 212 212 218 219 215 212 207 214 219 216 220
161 203 180 146 292 281 267 276 294 283 277 304 315 331 301 294 282 271 273 266 257 242 226 209 202 205 207 207 205 204 203 206 212 207 201 207 211 210 205 209 216 219 215 213 208 219 221 220 222
172 152 128 159 196 264 278 262 257 268 253 278 297 283 283 299 309 305 297 283 265 246 238 226 211 212 213 207 206 206 206 211 212 201 205 211 212 208 206 211 216 218 216 213 214 224 222 221 227
155 165 168 164 178 195 267 267 236 228 217 225 258 273 283 291 295 300 303 302 300 313 304 249 233 227 217 205 206 205 205 203 200 207 215 217 215 209 212 216 216 218 217 215 218 226 223 225 233
194 193 169 182 228 215 243 266 265 229 232 234 274 302 316 315 316 323 327 340 347 345 339 312 279 253 250 224 203 208 207 193 199 218 224 219 222 220 220 218 220 223 221 216 220 228 228 228 234